SURCAL 159

Satellite information

Favourite Embed

Satellite Type and Status

PAYLOADIN ORBIT

Key statistics

Satellite SURCAL 159 at a glance.

Uptime

21162

Days in orbit

Revolutions

≈ 14.0

Per day

Orbit

LEO

Low Earth Orbit

Inclination

70.0

Latest

Satellite identification and parameters

Extended collection of information and parameters for SURCAL 159.

Object identification

Identified? True

Debris? False

Object name: SURCAL 159

International designator: 1967-053F

Object number (NORAD): 2872

Object ID (CCSDS): 2872

Country: UNITED STATES OF AMERICA (US)

Current information (Y/N): Y

RCS size: MEDIUM

Orbital parameters

Period: 102.896 minutes

Inclination: 69.9722 deg

SMA: 7273.786 km

Apoapsis: 902.425 km

Periapsis: 888.877 km

RAAN: 154.3366 deg

Eccentricy: 0.0009313

Argument of periapsis: 279.5127 deg

Mean anomaly: 80.4927 deg

Mean motion: 13.99464861 rev/day

Mean motion (dot): 0.00000137 rev/day2

B* drag term: 0.00013069 1/REarth

Two-line elements (TLE)

Creation date: May 8, 2025, 3:01 a.m.

Reference frame: TEME

Reference center: EARTH

Epoch: May 7, 2025, 11:45 a.m. UTC

TLE line 0: 0 SURCAL 159

TLE line 1: 1 02872U 67053F 25127.48963239 .00000137 00000-0 13069-3 0 9994

TLE line 2: 2 02872 69.9722 154.3366 0009313 279.5127 80.4927 13.99464861953449

Live tracking on map

Real-time ground track for satellite SURCAL 159.

In-orbit conjunctions

A list of the most updated potential collisions computed for object SURCAL 159.

Target Orbit TCA Probability of collision Miss distance Type
FENGYUN 1C DEB SSO 2025-04-25 12:50:04 0.0001022136 37.0 (m) DEBRIS
OPS 7613 (P/L 5) DEB LEO 2024-10-11 23:24:32 0.0009390417 48.0 (m) DEBRIS
FENGYUN 1C DEB SSO 2024-07-10 08:55:15 0.0001222772 523.0 (m) DEBRIS

Associated space launch

Poppy was the follow-on ELINT system, which succeeded the Grab ELINT satellite system.

SURCAL 159 was lifted into orbit during the mission ‘Thor SLV-2 Agena D | Poppy 7A,B,C,D’, on board a Thor SLV-2 Agena D space rocket.

The launch took place on May 31, 1967, 9:30 a.m. from Space Launch Complex 2W.

For more information about the launch, click the button.

Launch to space Thor SLV-2 Agena D | Poppy 7A,B,C,D
Thor SLV-2 Agena D | Poppy 7A,B,C,D

Agency: N/A

Status: Launch Successful

Launch date: May 31, 1967, 9:30 a.m. UTC

Rocket: Thor SLV-2 Agena D

Launch pad: Space Launch Complex 2W

Location: Vandenberg SFB, CA, USA

...

Latest news about this satellite

There are no fresh news available about this satellite. Check back as we update our databases every day.


Newsletter sign-up

Weekly statistics, charts and insights to help you stay on top of the space industry.